When you browse on this site, cookies collect data to enhance your experience and personalize the content and advertising you see.
Visit our Privacy Policy to learn more. By continuing to use the site, you agree to this use of cookies and data.
  • en Suisse
  • Liste des pays
  • À 7 jours
  • Température de l'eau
  • Carte météo
  • Widgets météo
  • user-avatar
    Se connecter

    Météo par heure à Efimovka

    Ce jour, 21 Août, Mercredi

    Heure Température Précipitation Vent Pression Humidité
    00:00 +20°C° 0 mm 1 m/s 753 mmHg 78%
    01:00 +18°C° 0 mm 0 m/s 753 mmHg 80%
    02:00 +17°C° 0 mm 0 m/s 753 mmHg 82%
    03:00 +17°C° 0 mm 0 m/s 753 mmHg 83%
    04:00 +17°C° 0 mm 0 m/s 753 mmHg 83%
    05:00 +17°C° 0 mm 0 m/s 753 mmHg 83%
    06:00 +19°C° 0 mm 0 m/s 754 mmHg 79%
    07:00 +23°C° 0 mm 1 m/s 754 mmHg 75%
    08:00 +24°C° 0 mm 1 m/s 754 mmHg 71%
    09:00 +23°C° 0 mm 0 m/s 754 mmHg 68%
    10:00 +25°C° 0 mm 0 m/s 754 mmHg 64%
    11:00 +26°C° 0 mm 0 m/s 754 mmHg 61%
    12:00 +26°C° 0 mm 0 m/s 753 mmHg 59%
    13:00 +29°C° 0 mm 1 m/s 753 mmHg 58%
    14:00 +29°C° 0 mm 1 m/s 753 mmHg 56%
    15:00 +29°C° 0 mm 1 m/s 753 mmHg 59%
    16:00 +28°C° 0 mm 1 m/s 753 mmHg 63%
    17:00 +28°C° 0 mm 1 m/s 752 mmHg 66%
    18:00 +26°C° 0 mm 1 m/s 752 mmHg 69%
    19:00 +25°C° 0 mm 1 m/s 752 mmHg 73%
    20:00 +23°C° 0 mm 1 m/s 752 mmHg 77%
    21:00 +21°C° 0 mm 2 m/s 752 mmHg 78%
    22:00 +21°C° 0 mm 2 m/s 752 mmHg 80%
    23:00 +21°C° 0 mm 2 m/s 752 mmHg 81%

    Demain, 22 Août, Jeudi

    Heure Température Précipitation Vent Pression Humidité
    00:00 +20°C° 0 mm 2 m/s 752 mmHg 83%
    01:00 +20°C° 0 mm 2 m/s 752 mmHg 84%
    02:00 +19°C° 0 mm 2 m/s 752 mmHg 86%
    03:00 +19°C° 0 mm 2 m/s 752 mmHg 87%
    04:00 +19°C° 0 mm 2 m/s 751 mmHg 88%
    05:00 +19°C° 0 mm 2 m/s 751 mmHg 89%
    06:00 +20°C° 0 mm 2 m/s 751 mmHg 83%
    07:00 +23°C° 0 mm 2 m/s 751 mmHg 78%
    08:00 +25°C° 0 mm 2 m/s 751 mmHg 73%
    09:00 +26°C° 0.1 mm 2 m/s 751 mmHg 69%
    10:00 +27°C° 0.1 mm 2 m/s 751 mmHg 66%
    11:00 +28°C° 0.1 mm 2 m/s 751 mmHg 63%
    12:00 +28°C° 0.5 mm 2 m/s 751 mmHg 63%
    13:00 +28°C° 0.5 mm 2 m/s 751 mmHg 64%
    14:00 +28°C° 0.5 mm 2 m/s 751 mmHg 64%
    15:00 +26°C° 1 mm 3 m/s 751 mmHg 72%
    16:00 +25°C° 1 mm 4 m/s 751 mmHg 79%
    17:00 +22°C° 1 mm 5 m/s 751 mmHg 86%
    18:00 +21°C° 0.2 mm 5 m/s 752 mmHg 88%
    19:00 +19°C° 0.2 mm 5 m/s 752 mmHg 90%
    20:00 +17°C° 0.2 mm 5 m/s 753 mmHg 92%
    21:00 +16°C° 0 mm 5 m/s 753 mmHg 92%
    22:00 +17°C° 0 mm 4 m/s 753 mmHg 91%
    23:00 +15°C° 0 mm 4 m/s 754 mmHg 91%

    Après-demain, 23 Août, Vendredi

    Heure Température Précipitation Vent Pression Humidité
    00:00 +15°C° 0 mm 4 m/s 754 mmHg 92%
    01:00 +14°C° 0 mm 4 m/s 754 mmHg 92%
    02:00 +13°C° 0 mm 4 m/s 754 mmHg 93%
    03:00 +13°C° 0 mm 3 m/s 755 mmHg 93%
    04:00 +13°C° 0 mm 3 m/s 755 mmHg 94%
    05:00 +12°C° 0 mm 3 m/s 755 mmHg 94%
    06:00 +14°C° 0 mm 3 m/s 755 mmHg 89%
    07:00 +15°C° 0 mm 4 m/s 755 mmHg 84%
    08:00 +18°C° 0 mm 4 m/s 755 mmHg 79%
    09:00 +19°C° 0 mm 4 m/s 755 mmHg 74%
    10:00 +20°C° 0 mm 4 m/s 755 mmHg 69%
    11:00 +21°C° 0 mm 4 m/s 755 mmHg 64%
    12:00 +21°C° 0 mm 4 m/s 755 mmHg 63%
    13:00 +22°C° 0 mm 4 m/s 755 mmHg 61%
    14:00 +22°C° 0 mm 4 m/s 755 mmHg 59%
    15:00 +22°C° 0 mm 3 m/s 755 mmHg 63%
    16:00 +21°C° 0 mm 3 m/s 755 mmHg 67%
    17:00 +20°C° 0 mm 2 m/s 755 mmHg 71%
    18:00 +19°C° 0 mm 2 m/s 755 mmHg 73%
    19:00 +17°C° 0 mm 2 m/s 755 mmHg 75%
    20:00 +16°C° 0 mm 2 m/s 755 mmHg 78%
    21:00 +15°C° 0 mm 1 m/s 755 mmHg 79%
    22:00 +15°C° 0 mm 1 m/s 755 mmHg 80%
    23:00 +14°C° 0 mm 1 m/s 755 mmHg 81%

    24 Août, Samedi

    Heure Température Précipitation Vent Pression Humidité
    00:00 +14°C° 0 mm 1 m/s 755 mmHg 82%
    01:00 +14°C° 0 mm 1 m/s 756 mmHg 83%
    02:00 +13°C° 0 mm 1 m/s 756 mmHg 84%
    03:00 +13°C° 0 mm 1 m/s 756 mmHg 85%
    04:00 +13°C° 0 mm 1 m/s 756 mmHg 85%
    05:00 +13°C° 0 mm 1 m/s 756 mmHg 86%
    06:00 +15°C° 0 mm 1 m/s 756 mmHg 80%
    07:00 +18°C° 0 mm 1 m/s 756 mmHg 75%
    08:00 +20°C° 0 mm 1 m/s 756 mmHg 70%
    09:00 +21°C° 0 mm 1 m/s 756 mmHg 65%
    10:00 +22°C° 0 mm 1 m/s 756 mmHg 60%
    11:00 +23°C° 0 mm 1 m/s 755 mmHg 55%
    12:00 +24°C° 0 mm 1 m/s 755 mmHg 52%
    13:00 +24°C° 0 mm 1 m/s 755 mmHg 50%
    14:00 +24°C° 0 mm 1 m/s 755 mmHg 48%
    15:00 +24°C° 0 mm 1 m/s 754 mmHg 53%
    16:00 +23°C° 0 mm 1 m/s 754 mmHg 57%
    17:00 +23°C° 0 mm 1 m/s 754 mmHg 61%
    18:00 +21°C° 0 mm 1 m/s 754 mmHg 64%
    19:00 +17°C° 0 mm 0 m/s 754 mmHg 67%
    20:00 +15°C° 0 mm 0 m/s 754 mmHg 70%
    21:00 +15°C° 0 mm 0 m/s 754 mmHg 71%
    22:00 +15°C° 0 mm 0 m/s 754 mmHg 72%
    23:00 +15°C° 0 mm 1 m/s 754 mmHg 73%

    25 Août, Dimanche

    Heure Température Précipitation Vent Pression Humidité
    00:00 +15°C° 0 mm 1 m/s 753 mmHg 76%
    01:00 +15°C° 0 mm 1 m/s 753 mmHg 78%
    02:00 +14°C° 0 mm 1 m/s 753 mmHg 81%
    03:00 +14°C° 0 mm 1 m/s 753 mmHg 83%
    04:00 +14°C° 0 mm 1 m/s 753 mmHg 85%
    05:00 +13°C° 0 mm 2 m/s 753 mmHg 87%
    06:00 +15°C° 0 mm 2 m/s 753 mmHg 82%
    07:00 +17°C° 0 mm 2 m/s 753 mmHg 77%
    08:00 +19°C° 0 mm 2 m/s 753 mmHg 73%
    09:00 +20°C° 0 mm 2 m/s 752 mmHg 68%
    10:00 +21°C° 0 mm 3 m/s 752 mmHg 64%
    11:00 +22°C° 0 mm 3 m/s 752 mmHg 59%
    12:00 +24°C° 0 mm 3 m/s 752 mmHg 59%
    13:00 +24°C° 0 mm 3 m/s 752 mmHg 58%
    14:00 +25°C° 0 mm 3 m/s 752 mmHg 57%
    15:00 +24°C° 0.1 mm 3 m/s 752 mmHg 64%
    16:00 +22°C° 0.1 mm 3 m/s 752 mmHg 70%
    17:00 +21°C° 0.1 mm 3 m/s 752 mmHg 76%
    18:00 +20°C° 0 mm 3 m/s 752 mmHg 81%
    19:00 +18°C° 0 mm 3 m/s 752 mmHg 86%
    20:00 +17°C° 0 mm 3 m/s 753 mmHg 91%
    21:00 +16°C° 0 mm 3 m/s 753 mmHg 90%
    22:00 +14°C° 0 mm 3 m/s 754 mmHg 89%
    23:00 +13°C° 0 mm 3 m/s 754 mmHg 87%

    26 Août, Lundi

    Heure Température Précipitation Vent Pression Humidité
    00:00 +13°C° 0 mm 3 m/s 754 mmHg 89%
    01:00 +12°C° 0 mm 3 m/s 755 mmHg 90%
    02:00 +12°C° 0 mm 2 m/s 755 mmHg 92%
    03:00 +12°C° 0 mm 2 m/s 755 mmHg 93%
    04:00 +12°C° 0 mm 2 m/s 755 mmHg 94%
    05:00 +10°C° 0 mm 2 m/s 756 mmHg 95%
    06:00 +12°C° 0 mm 3 m/s 756 mmHg 89%
    07:00 +13°C° 0 mm 3 m/s 756 mmHg 83%
    08:00 +16°C° 0 mm 3 m/s 756 mmHg 78%
    09:00 +17°C° 0 mm 3 m/s 756 mmHg 71%
    10:00 +18°C° 0 mm 3 m/s 757 mmHg 64%
    11:00 +19°C° 0 mm 3 m/s 757 mmHg 57%
    12:00 +20°C° 0 mm 2 m/s 756 mmHg 55%
    13:00 +20°C° 0 mm 2 m/s 756 mmHg 52%
    14:00 +21°C° 0 mm 2 m/s 756 mmHg 50%
    15:00 +20°C° 0 mm 2 m/s 756 mmHg 54%
    16:00 +20°C° 0 mm 2 m/s 756 mmHg 58%
    17:00 +19°C° 0 mm 2 m/s 755 mmHg 62%
    18:00 +18°C° 0 mm 2 m/s 755 mmHg 66%
    19:00 +16°C° 0 mm 2 m/s 755 mmHg 69%
    20:00 +14°C° 0 mm 2 m/s 755 mmHg 73%
    21:00 +13°C° 0 mm 2 m/s 756 mmHg 75%
    22:00 +13°C° 0 mm 2 m/s 756 mmHg 78%
    23:00 +12°C° 0 mm 2 m/s 756 mmHg 80%
    Voir plus